Regional Weather Roundup
Issued by NWS

Home | Current Version | Previous Version | Text Only | Print | Product List | Glossary On
Versions: 1 2 3 4 5 6 7 8 9 10 11 12 13 14 15 16 17 18 19 20 21 22 23 24 25 26 27 28 29 30 31 32 33 34 35 36 37 38 39 40 41 42 43 44 45 46 47 48 49 50
000
ASUS45 KCYS 121710
RWRWY

WYOMING REGIONAL WEATHER ROUNDUP
NATIONAL WEATHER SERVICE CHEYENNE WY
1000 AM MST TUE NOV 12 2019

NOTE:  "FAIR" INDICATES FEW OR NO CLOUDS BELOW 12,000 FEET
WITH NO SIGNIFICANT WEATHER AND/OR OBSTRUCTIONS TO VISIBILITY.

WYZ001-121800-
YELLOWSTONE NATIONAL PARK

CITY           SKY/WX    TMP DP  RH WIND       PRES   REMARKS
LK YELLOWSTONE   N/A     27  19  72 CALM      30.26F
W YELLOWSTONE  NOT AVBL

$$
WYZ002>013-054>058-071-098>099-121800-
NORTHERN WYOMING

CITY           SKY/WX    TMP DP  RH WIND       PRES   REMARKS
JACKSON        FAIR      23  10  57 CALM      30.30F
CODY           FAIR      50   0  12 W10       30.06F
GREYBULL       FAIR      11   7  84 CALM      30.15F
WORLAND        FAIR      10   7  87 SW5       30.13S WCI   2
SHERIDAN       FAIR      27  14  58 N7        29.96S WCI  19
BUFFALO        FAIR      42  18  37 N8        29.96S
GILLETTE       FAIR      38  20  48 SW18      29.97F WCI  28
HULETT         FAIR      37  16  41 MISG      29.99R
NEWCASTLE      FAIR      28  16  59 CALM      30.05S

$$
WYZ014>020-022>026-101>103-121800-
CENTRAL WYOMING

CITY           SKY/WX    TMP DP  RH WIND       PRES   REMARKS
BIG PINEY      FAIR      23  13  65 CALM      30.31S
PINEDALE       FAIR      27  14  59 W3        30.31S
DUBOIS         FAIR      37  -6  15 N17G28    30.16F WCI  28
LANDER         FAIR      22  17  81 SE3       30.14F
RIVERTON       FAIR      19  16  88 CALM      30.16S
CASPER         FAIR      36  19  50 SW28G39   30.10F WCI  23
DOUGLAS        FAIR      43  21  41 NW5       30.07F

$$
WYZ021-027>030-104>119-121800-
SOUTHERN WYOMING

CITY           SKY/WX    TMP DP  RH WIND       PRES   REMARKS
EVANSTON       FAIR      34  16  47 SW15      30.30F WCI  24
KEMMERER       FAIR      34  16  47 W8        30.31R WCI  27
ROCK SPRINGS   FAIR      22  18  85 E5        30.29F WCI  16
DIXON          FAIR      32  10  39 S15       30.37F WCI  21
RAWLINS        FAIR      38  17  42 SW7       30.24F WCI  33
SARATOGA       FAIR      36   9  32 SE14G20   30.27F WCI  27
LARAMIE        FAIR      39  11  31 SW18      30.18F WCI  30
CHEYENNE       FAIR      47   5  18 W20G26    30.13F
TORRINGTON     FAIR      20  15  81 CALM      30.08F
PINE BLUFFS    FAIR      34  21  60 S13       30.13F WCI  25

$$



USA.gov is the U.S. government's official web portal to all federal, state and local government web resources and services.